Погода в Кварели

Грузия     41°57′08″N   45°49′06″E
темп.,
°C
ветер,
м/с
пор.,
м/с
влажн.,
%
обл.,
%
осадки,
мм/ч
давл.,
гПа
погр.,
м
17 мая, пн
пн1701:00+16ссв333426 0.0 101343
04:00+15ссв323982 0.0 101333
07:00+17ссв22475 0.0 101248
10:00+23ююз21321 0.0 1011618
13:00+27ююз32277 0.0 10091059
16:00+28ю33255 0.0 10061185
19:00+21св2251100 0.2 101024
22:00+19св4549100 0.3 100997
18 мая, вт
вт1801:00+14ссв328198 0.6 101034
04:00+13ссв338330 1.8 100939
07:00+15ссв33790 1.8 100952
10:00+22юз21484 2.7 1008920
13:00+25зюз343510 1.1 10082387
16:00+24з55315 2.3 10091916
19:00+20сз244635 0.0 1010153
22:00+16ссв32450 0.0 101233
19 мая, ср
ср1901:00+15ссв33440 0.0 101242
04:00+14ссв33410 0.0 101243
07:00+17ссв22431 0.0 101252
10:00+22ююз213210 0.0 1011690
13:00+26юз24285 0.0 10102057
16:00+25зсз673418 0.1 10101901
19:00+21зсз355015 0.1 1012389
22:00+16ссз345915 0.1 101490
20 мая, чт
чт2001:00+14с23630 0.0 101565
04:00+12ссв325344 0.0 101653
07:00+14ссв22420 0.0 101774
10:00+21ю22280 0.0 1017747
13:00+24ююз33180 0.0 10171567
16:00+25ю23210 0.0 10161842
19:00+22юв11410 0.0 101633
22:00+17ссв32410 0.0 101933
21 мая, пт
пт2101:00+14св22530 0.0 102019
04:00+12ссв22580 0.0 102123
07:00+15ю01560 0.0 1021175
10:00+19ююз21470 0.0 1020616
13:00+23ю32370 0.0 10181024
16:00+25ю21330 0.0 10161069
19:00+23юв11490 0.0 101623
22:00+18св32520 0.0 101826